Location: Newark
(13.8117°N, 3.6025°W)
Time: 20:33:46
(UTC+00:00)

Vanguard 2 - Pass Details

Date: 01 September 2019
Orbit: 554 x 2937 km, 32.9° (Epoch: 22 October)

Event Time Altitude Azimuth Distance (km) Brightness Sun altitude
Rises 14:26:56 0° 314° (NW) 3,434 11.2 57.1°
Reaches altitude 10° 14:29:14 10° 323° (NW) 2,720 10.7 56.5°
Maximum altitude 14:35:28 39° 31° (NNE) 1,908 9.8 55.0°
Drops below altitude 10° 14:45:26 10° 96° (E) 4,355 11.1 52.6°
Sets 14:50:09 0° 102° (ESE) 5,761 11.6 51.4°
